Regional Weather Roundup
Issued by NWS

Home | Current Version | Previous Version | Text Only | Print | Product List | Glossary Off
Versions: 1 2 3 4 5 6 7 8 9 10 11 12 13 14 15 16 17 18 19 20 21 22 23 24 25 26 27 28 29 30 31 32 33 34 35 36 37 38 39 40 41 42 43 44 45 46 47 48 49 50

676
ASUS45 KTFX 250210
RWRMT
MONTANA REGIONAL WEATHER ROUNDUP
NATIONAL WEATHER SERVICE GREAT FALLS MT
800 PM MDT TUE MAY 24 2016

NOTE: "FAIR" INDICATES FEW OR NO CLOUDS BELOW 12000 FEET WITH NO
SIGNIFICANT WEATHER AND/OR OBSTRUCTIONS TO VISIBILITY.

MTZ001>007-043-250300-
WEST OF THE DIVIDE

CITY           SKY/WX    TMP DP  RH WIND       PRES   REMARKS
KALISPELL      SUNNY     58  42  55 S7        29.89S
MISSOULA       SUNNY     58  41  53 NW8       29.92R
BUTTE          CLOUDY    48  36  63 NW8       29.93R
MULLAN PASS    CLOUDY    41  40  96 CALM      29.96S
ANACONDA         N/A     46  41  81 CALM      29.92F
DEER LODGE       N/A     48  43  81 CALM      29.93S
EUREKA           N/A     64  39  39 SE3       29.87S
HAMILTON         N/A     55  39  54 CALM      29.91R
LIBBY            N/A     64  37  36 NW5       29.87S
$$

MTZ008-052>055-250300-
SOUTHWEST MONTANA

CITY           SKY/WX    TMP DP  RH WIND       PRES   REMARKS
BOZEMAN        CLEAR     57  39  51 CALM      29.88S
DILLON         CLOUDY    55  35  47 N3        29.87R
ENNIS          CLEAR     52  39  62 N9        29.94R
$$

MTZ009-010-012-014-046-048-049-054-250300-
EAST SLOPES AND CENTRAL MONTANA

CITY           SKY/WX    TMP DP  RH WIND       PRES   REMARKS
CUT BANK       PTSUNNY   57  41  55 CALM      29.87S
GREAT FALLS    CLOUDY    57  37  47 CALM      29.88R
MALMSTROM AFB  MOCLDY    55  43  64 SE5       29.88S
HELENA         CLOUDY    53  43  68 S8        29.88F
CHOTEAU          N/A     57  36  44 NW3       29.89S
$$

MTZ011-013-016-021-045-047-050-051-250300-
NORTH CENTRAL MONTANA

CITY           SKY/WX    TMP DP  RH WIND       PRES   REMARKS
HAVRE          CLEAR     58  42  55 S3        29.86S
LEWISTOWN      PTCLDY    54  40  59 N5        29.91R
N BAR RANCH      N/A     46  43  87 CALM      29.94R
CHINOOK          N/A     57  45  62 CALM      29.86S
$$

MTZ017>020-022>027-061-062-250300-
NORTHEAST MONTANA

CITY           SKY/WX    TMP DP  RH WIND       PRES   REMARKS
GLASGOW        CLEAR     60  41  49 NW5       29.86S
JORDAN           N/A     61  41  47 NW7       29.86F
SIDNEY         CLEAR     65  42  43 N6        29.85R
WOLF POINT     CLEAR     63  41  44 NW8       29.86S
PLENTYWOOD       N/A     63  39  42 W10       29.87R
POPLAR           N/A     63  39  42 W8        29.86S
$$

MTZ028>42-056>058-250300-
SOUTHCENTRAL AND SOUTHEAST MONTANA

CITY           SKY/WX    TMP DP  RH WIND       PRES   REMARKS
BAKER          CLOUDY    63  46  54 SE14      29.84R
BILLINGS       CLOUDY    58  43  57 E3        29.86F
LIVINGSTON     PTCLDY    57  35  43 NW3       29.87R
MILES CITY     CLOUDY    66  40  38 N9        29.82R
FORSYTH          N/A     63  43  48 NW9       29.84R
$$

REGIONAL REPORTS...DAKOTAS

CITY           SKY/WX    TMP DP  RH WIND       PRES   REMARKS
WILLISTON      CLEAR     67  37  33 W7        29.85S
MINOT          CLEAR     71  43  36 W6        29.84S
DICKINSON      CLOUDY    60  48  64 NE8       29.84S
BEACH            N/A     61  41  48 NE10      29.88R
CROSBY           N/A     63  37  39 W7        29.88S
WATFORD CITY     N/A     68  39  34 CALM      29.86R
BISMARCK       CLOUDY    71  45  39 E3        29.83S
GRAND FORKS    CLEAR     75  48  38 E3        29.86R
FARGO          CLEAR     76  39  26 NE9       29.84S
BUFFALO SD       N/A     67  41  38 S22G31    29.76R
RAPID CITY     RAIN      56  48  74 SE38G52   29.74F
$$

REGIONAL REPORTS...WYOMING/IDAHO/WASHINGTON

CITY           SKY/WX    TMP DP  RH WIND       PRES   REMARKS
GILLETTE       MOCLDY    54  50  86 E9        29.82F
SHERIDAN       CLOUDY    56  44  64 NW25G37   29.82R
BUFFALO WY     CLOUDY    57  41  55 SW7       29.87R
CODY           CLOUDY    48  39  71 NW5       29.91R
YELLOWSTONE LA   N/A     37  34  89 CALM      29.99S
IDAHO FALLS    CLOUDY    53  39  59 SE16      29.87R
SALMON         CLOUDY    57  36  44 N6        29.86R
BOISE          MOSUNNY   68  32  26 NW18      29.82R
SPOKANE        LGT RAIN  61  46  57 SE6       29.90S
$$

REGIONAL REPORTS...ALBERTA

CITY           SKY/WX    TMP DP  RH WIND       PRES   REMARKS
EDMONTON       SUNNY     61  45  55 SE14      29.81F
CALGARY        MOSUNNY   59  37  44 SE13      29.84S
MEDICINE HAT   PTCLDY    54  45  71 NE6       29.86S
$$

REGIONAL REPORTS...SASKATCHEWAN

CITY           SKY/WX    TMP DP  RH WIND       PRES   REMARKS
SWIFT CURRENT  MOCLDY    52  46  82 W7        29.84R
$$




USA.gov is the U.S. government's official web portal to all federal, state and local government web resources and services.